Flag for Madagascar Weather past 2 weeks in Antananarivo, Madagascar

Now
55 °F

Passing clouds.


Feels Like: 55 °F
Forecast: 49 / 66 °F
Wind: 1 mph from Southeast

Location: Antananarivo / Ivato

Current Time: Jul 29, 2014 at 6:36:58 AM

Latest Report: Jul 29, 2014 at 6:00 AM


Visibility: N/A

Pressure: 30.33 "Hg

Humidity: 100%

Dew point: 55 °F

Location of AntananarivoLocation

Historic Weather in Antananarivo — Graph

°F

Antananarivo temperature yesterday

Maximum temperature yesterday: 73 °F (at 1:30 PM)
Minimum temperature yesterday: 50 °F (at 5:00 AM)
Average temperature yesterday: 61 °F

Past Weeks' High & Low Weather Summary

 TemperatureHumidityPressure
High79 °F (Jul 19, 12:00 PM)100% (Jul 14, 5:00 AM)30.42 "Hg (Jul 14, 5:00 AM)
Low46 °F (Jul 18, 4:00 AM)53% (Jul 18, 12:30 PM)30.21 "Hg (Jul 22, 2:00 PM)
Average60 °F93%30.32 "Hg
* Reported Jul 14 5:00 AM — Jul 29 5:30 AM, Antananarivo, Weather by CustomWeather, © 2014

Note: Actual official high and low records may vary slightly from our data, if they occured in-between our weather recording intervals... More about our weather records

Advertising

Antananarivo weather history for previous 24 hours

 ConditionsComfort  
Time TempWeatherWind HumidityBarometerVisibility
5:30 AM
Jul 29
55 °FPassing clouds.2 mph100%30.33 "HgN/A
5:00 AM57 °FPassing clouds.2 mph100%30.33 "HgN/A
4:30 AM57 °FPassing clouds.2 mph100%30.33 "HgN/A
4:00 AM57 °FPassing clouds.3 mph100%30.33 "HgN/A
3:30 AM57 °FPassing clouds.3 mph100%30.33 "HgN/A
3:00 AM57 °FPassing clouds.No wind100%30.33 "HgN/A
2:00 AM59 °FPassing clouds.3 mph100%30.33 "HgN/A
1:30 AM59 °FPassing clouds.1 mph100%30.36 "HgN/A
1:00 AM59 °FPassing clouds.1 mph100%30.36 "HgN/A
12:30 AM59 °FPassing clouds.No wind100%30.36 "HgN/A
12:00 AM59 °FPassing clouds.2 mph100%30.36 "HgN/A
11:30 PM
Jul 28
59 °FPassing clouds.3 mph100%30.36 "HgN/A
11:00 PM59 °FPassing clouds.2 mph100%30.36 "HgN/A
10:30 PM59 °FPassing clouds.2 mph100%30.36 "HgN/A
10:00 PM59 °FPassing clouds.2 mph100%30.39 "HgN/A
9:30 PM59 °FPassing clouds.2 mph100%30.39 "HgN/A
9:00 PM59 °FPassing clouds.5 mph100%30.36 "HgN/A
8:30 PM59 °FPassing clouds.2 mph100%30.36 "HgN/A
8:00 PM59 °FPassing clouds.6 mph100%30.36 "HgN/A
7:30 PM61 °FPassing clouds.3 mph100%30.36 "HgN/A
7:00 PM61 °FPassing clouds.6 mph100%30.33 "HgN/A
6:30 PM61 °FPassing clouds.5 mph100%30.33 "HgN/A
6:00 PM63 °FPassing clouds.6 mph94%30.33 "HgN/A
5:30 PM64 °FScattered clouds.7 mph88%30.33 "HgN/A
5:00 PM68 °FScattered clouds.10 mph78%30.30 "HgN/A
4:30 PM72 °FPassing clouds.9 mph73%30.30 "HgN/A
4:00 PM72 °FPassing clouds.9 mph69%30.30 "HgN/A
3:30 PM72 °FScattered clouds.9 mph69%30.30 "HgN/A
3:00 PM72 °FScattered clouds.10 mph73%30.30 "HgN/A
2:30 PM73 °FScattered clouds.10 mph65%30.30 "HgN/A
2:00 PM72 °FPartly sunny.10 mph73%30.30 "HgN/A
1:30 PM73 °FPartly sunny.9 mph74%30.30 "HgN/A
1:00 PM72 °FScattered clouds.12 mph73%30.30 "HgN/A
12:30 PM72 °FScattered clouds.10 mph78%30.33 "HgN/A
12:00 PM70 °FBroken clouds.6 mph83%30.33 "HgN/A
11:30 AM70 °FPartly sunny.7 mph88%30.36 "HgN/A
11:00 AM68 °FPartly sunny.7 mph88%30.36 "HgN/A
10:30 AM64 °FPartly sunny.3 mph100%30.36 "HgN/A
10:00 AM61 °FPartly sunny.3 mph100%30.39 "HgN/A
9:30 AM59 °FPartly sunny.3 mph100%30.39 "HgN/A
9:00 AM57 °FPartly sunny.3 mph100%30.39 "HgN/A
8:00 AM55 °FPartly sunny.1 mph100%30.36 "HgN/A
7:30 AM52 °FFog.3 mph100%30.36 "Hg2 mi
7:00 AM52 °FFog.2 mph100%30.36 "Hg1 mi
6:30 AM52 °FFog.2 mph100%30.36 "Hg0 mi
6:00 AM50 °FFog.No wind100%30.33 "Hg1 mi
Weather by CustomWeather, © 2014

See weather overviewHow to use our weather pages